Location: Julian California
(33.0790°N, 116.6010°W)
Time: 05:41:46
(UTC-07:00)

H-2A R/B - Pass Details

Date: 19 May 2017
Orbit: 734 x 837 km, 98.4° (Epoch: 22 July)

Event Time Altitude Azimuth Distance (km) Brightness Sun altitude
Exits shadow 20:57:48 - 78° (ENE) 2,287 4.1 -14.5°
Reaches altitude 10° 20:58:30 10° 69° (ENE) 2,240 4.1 -14.6°
Maximum altitude 20:59:02 10° 63° (ENE) 2,231 4.1 -14.7°
Drops below altitude 10° 20:59:33 10° 57° (ENE) 2,244 4.2 -14.8°
Sets 21:04:21 0° 15° (NNE) 3,192 5.5 -15.6°
